EW5462 Weather Reports


Display with metric or nautical units.
time (UTC)temp
F
wind
direction
speed
MPH
gust
MPH
rain 1hr
in
rain 24hr
in
rain mn
in
humidity
%
barometer
mb
20260903001817 106 254 3.0 6.0 0.00 0.00 0.00 15 1006.3
20260903001416 106 261 4.0 7.0 0.00 0.00 0.00 15 1006.4
20260903000417 107 242 4.0 8.0 0.00 0.00 0.00 15 1006.5
20260902235416 107 0.0 0.0 0.00 0.00 0.00 15 1006.7
20260902234417 108 218 3.0 7.0 0.00 0.00 0.00 14 1006.8
20260902233416 107 227 4.0 8.0 0.00 0.00 0.00 15 1006.9
20260902232417 107 223 5.0 8.0 0.00 0.00 0.00 15 1007.0
20260902231516 107 168 1.0 6.0 0.00 0.00 0.00 15 1007.1
20260902230517 106 257 0.0 1.0 0.00 0.00 0.00 16 1007.2
20260902225517 106 252 4.0 7.0 0.00 0.00 0.00 15 1007.3
20260902224517 106 236 1.0 5.0 0.00 0.00 0.00 15 1007.4
20260902223516 105 263 4.0 6.0 0.00 0.00 0.00 15 1007.3
20260902222517 105 266 1.0 4.0 0.00 0.00 0.00 16 1007.4
20260902221517 106 225 7.0 8.0 0.00 0.00 0.00 15 1007.6
20260902220516 106 232 7.0 11.0 0.00 0.00 0.00 15 1007.8
20260902215517 106 230 5.0 8.0 0.00 0.00 0.00 15 1008.0
20260902214516 107 212 5.0 8.0 0.00 0.00 0.00 15 1008.2
20260902213517 105 124 0.0 2.0 0.00 0.00 0.00 17 1008.4
20260902213317 105 0.0 0.0 0.00 0.00 0.00 17 1008.4
20260902213016 105 227 5.0 7.0 0.00 0.00 0.00 17 1008.4
20260902212017 106 218 2.0 4.0 0.00 0.00 0.00 17 1008.6
20260902211016 104 279 1.0 4.0 0.00 0.00 0.00 17 1008.7
20260902210017 105 217 7.0 10.0 0.00 0.00 0.00 17 1009.0
20260902205016 103 260 3.0 5.0 0.00 0.00 0.00 17 1009.0
20260902204017 103 241 7.0 9.0 0.00 0.00 0.00 16 1009.2
20260902203016 102 257 5.0 8.0 0.00 0.00 0.00 18 1009.3
20260902202017 103 231 3.0 7.0 0.00 0.00 0.00 17 1009.5
20260902201016 103 234 6.0 8.0 0.00 0.00 0.00 18 1009.7
20260902200017 103 220 2.0 7.0 0.00 0.00 0.00 17 1009.8
20260902195016 99 0.0 0.0 0.00 0.00 0.00 19 1010.0
20260902194017 101 244 5.0 6.0 0.00 0.00 0.00 20 1010.2
20260902193016 100 254 1.0 4.0 0.00 0.00 0.00 19 1010.4
20260902192017 101 156 0.0 2.0 0.00 0.00 0.00 19 1010.5
20260902191016 102 207 2.0 4.0 0.00 0.00 0.00 19 1010.6
20260902190017 99 0.0 0.0 0.00 0.00 0.00 20 1010.6
20260902185016 101 155 1.0 5.0 0.00 0.00 0.00 20 1010.7
20260902184017 97 0.0 0.0 0.00 0.00 0.00 20 1010.8
20260902183016 99 173 1.0 4.0 0.00 0.00 0.00 19 1011.1
20260902182017 97 0.0 0.0 0.00 0.00 0.00 19 1011.3
20260902181016 97 245 1.0 3.0 0.00 0.00 0.00 19 1011.4
20260902180017 96 0.0 0.0 0.00 0.00 0.00 20 1011.5
20260902175017 95 320 0.0 0.0 0.00 0.00 0.00 19 1011.6
20260902174016 96 275 3.0 7.0 0.00 0.00 0.00 18 1011.6
20260902173016 96 300 3.0 6.0 0.00 0.00 0.00 17 1011.6
20260902172017 95 324 0.0 1.0 0.00 0.00 0.00 17 1011.7
20260902171017 95 312 1.0 5.0 0.00 0.00 0.00 17 1011.8
20260902170017 94 317 5.0 6.0 0.00 0.00 0.00 17 1011.8
20260902165716 94 270 2.0 4.0 0.00 0.00 0.00 16 1011.8
20260902164716 93 327 4.0 5.0 0.00 0.00 0.00 16 1011.9
20260902163716 93 309 3.0 6.0 0.00 0.00 0.00 16 1011.9
20260902162717 92 322 2.0 6.0 0.00 0.00 0.00 17 1011.8
20260902161716 92 302 5.0 7.0 0.00 0.00 0.00 16 1011.8
20260902161316 92 312 3.0 8.0 0.00 0.00 0.00 16 1011.9
20260902160317 92 340 3.0 4.0 0.00 0.00 0.00 16 1011.8
20260902155316 92 22 0.0 2.0 0.00 0.00 0.00 16 1011.8
20260902154316 92 0.0 0.0 0.00 0.00 0.00 16 1011.7
20260902153317 91 61 0.0 0.0 0.00 0.00 0.00 16 1011.8
20260902152316 90 58 0.0 0.0 0.00 0.00 0.00 19 1011.8
20260902151316 89 0.0 0.0 0.00 0.00 0.00 19 1011.8
20260902150316 89 86 2.0 3.0 0.00 0.00 0.00 19 1011.7
20260902145317 88 0.0 0.0 0.00 0.00 0.00 20 1011.6
20260902144316 86 0.0 0.0 0.00 0.00 0.00 23 1011.7
20260902143317 85 0.0 0.0 0.00 0.00 0.00 26 1011.8
20260902142317 83 0.0 0.0 0.00 0.00 0.00 29 1011.8
20260902141316 82 127 0.0 0.0 0.00 0.00 0.00 30 1011.7
20260902140317 81 117 0.0 0.0 0.00 0.00 0.00 31 1011.5
20260902135317 80 67 0.0 0.0 0.00 0.00 0.00 31 1011.4
20260902134316 79 0.0 0.0 0.00 0.00 0.00 33 1011.3
20260902133317 79 86 1.0 2.0 0.00 0.00 0.00 34 1011.0
20260902132316 79 0.0 0.0 0.00 0.00 0.00 34 1010.9
20260902131317 79 53 0.0 0.0 0.00 0.00 0.00 35 1010.8
20260902130316 79 0.0 0.0 0.00 0.00 0.00 33 1010.8
20260902125317 79 54 0.0 1.0 0.00 0.00 0.00 29 1010.8
20260902124816 79 71 2.0 3.0 0.00 0.00 0.00 32 1010.7
20260902123817 78 0.0 0.0 0.00 0.00 0.00 30 1010.7
20260902122816 79 0.0 0.0 0.00 0.00 0.00 27 1010.6
20260902121817 79 0.0 0.0 0.00 0.00 0.00 28 1010.5
20260902120816 79 0.0 0.0 0.00 0.00 0.00 29 1010.5
20260902115816 81 0.0 0.0 0.00 0.00 0.00 26 1010.4
20260902114817 81 0.0 0.0 0.00 0.00 0.00 24 1010.3
20260902114218 82 0.0 0.0 0.00 0.00 0.00 23 1010.2
20260902113217 82 0.0 0.0 0.00 0.00 0.00 24 1010.1
20260902112216 82 0.0 0.0 0.00 0.00 0.00 25 1010.2
20260902111217 81 0.0 0.0 0.00 0.00 0.00 29 1010.2
20260902110217 83 0.0 0.0 0.00 0.00 0.00 23 1010.1
20260902105217 83 263 2.0 3.0 0.00 0.00 0.00 22 1010.1
20260902104217 83 302 1.0 2.0 0.00 0.00 0.00 25 1010.1
20260902103217 81 0.0 0.0 0.00 0.00 0.00 31 1010.1
20260902102217 82 0.0 0.0 0.00 0.00 0.00 30 1010.1
20260902101816 83 0.0 0.0 0.00 0.00 0.00 29 1010.1
20260902100816 82 0.0 0.0 0.00 0.00 0.00 31 1010.1
20260902095817 81 0.0 0.0 0.00 0.00 0.00 34 1010.2
20260902094816 82 0.0 0.0 0.00 0.00 0.00 33 1010.1
20260902093817 82 0.0 0.0 0.00 0.00 0.00 34 1010.0
20260902092816 82 0.0 0.0 0.00 0.00 0.00 33 1010.1
20260902091817 82 0.0 0.0 0.00 0.00 0.00 34 1010.2
20260902090816 82 0.0 0.0 0.00 0.00 0.00 33 1010.2
20260902085816 83 0.0 0.0 0.00 0.00 0.00 33 1010.2
20260902084817 83 0.0 0.0 0.00 0.00 0.00 34 1010.4
20260902083817 83 0.0 0.0 0.00 0.00 0.00 41 1010.4
20260902082816 84 0.0 0.0 0.00 0.00 0.00 48 1010.4
20260902081817 85 0.0 0.0 0.00 0.00 0.00 45 1010.3
20260902081516 86 202 0.0 0.0 0.00 0.00 0.00 38 1010.4
20260902080517 86 247 3.0 4.0 0.00 0.00 0.00 41 1010.3
20260902075516 86 256 1.0 4.0 0.00 0.00 0.00 41 1010.3
20260902074516 86 263 2.0 4.0 0.00 0.00 0.00 49 1010.3
20260902073517 85 256 4.0 6.0 0.00 0.00 0.00 54 1010.3
20260902072516 86 239 2.0 4.0 0.00 0.00 0.00 54 1010.2
20260902071517 86 252 2.0 4.0 0.00 0.00 0.00 52 1010.1
20260902070516 86 0.0 0.0 0.00 0.00 0.00 50 1009.9
20260902065517 86 0.0 0.0 0.00 0.00 0.00 49 1009.8
20260902064516 86 0.0 0.0 0.00 0.00 0.00 50 1009.7
20260902063516 86 0.0 0.0 0.00 0.00 0.00 49 1009.7
20260902062817 86 0.0 0.0 0.00 0.00 0.00 49 1009.6
20260902061816 86 0.0 0.0 0.00 0.00 0.00 50 1009.6
20260902060817 86 0.0 0.0 0.00 0.00 0.00 49 1009.5
20260902055816 86 0.0 0.0 0.00 0.00 0.00 50 1009.5
20260902054817 86 0.0 0.0 0.00 0.00 0.00 50 1009.5
20260902053817 86 0.0 0.0 0.00 0.00 0.00 50 1009.5
20260902053416 86 0.0 0.0 0.00 0.00 0.00 49 1009.5
20260902052417 86 0.0 0.0 0.00 0.00 0.00 50 1009.4
20260902051416 86 0.0 0.0 0.00 0.00 0.00 50 1009.5
20260902050417 87 0.0 0.0 0.00 0.00 0.00 50 1009.5
20260902045417 87 0.0 0.0 0.00 0.00 0.00 50 1009.5
20260902044416 87 0.0 0.0 0.00 0.00 0.00 51 1009.5
20260902043417 87 0.0 0.0 0.00 0.00 0.00 50 1009.4
20260902042417 86 0.0 0.0 0.00 0.00 0.00 52 1009.4
20260902041417 86 0.0 0.0 0.00 0.00 0.00 53 1009.3
20260902040416 86 0.0 0.0 0.00 0.00 0.00 53 1009.3
20260902035417 87 351 0.0 1.0 0.00 0.00 0.00 52 1009.4
20260902034417 87 328 3.0 3.0 0.00 0.00 0.00 53 1009.1
20260902033417 87 15 0.0 0.0 0.00 0.00 0.00 53 1008.9
20260902032416 87 5 5.0 8.0 0.00 0.00 0.00 53 1008.8
20260902031417 87 360 6.0 10.0 0.00 0.00 0.00 52 1008.7
20260902030416 86 1 8.0 11.0 0.00 0.00 0.00 52 1008.6
20260902025717 86 353 10.0 14.0 0.00 0.00 0.00 53 1008.5
20260902024716 86 358 8.0 11.0 0.00 0.00 0.00 54 1008.6
20260902023717 86 343 11.0 16.0 0.00 0.00 0.00 53 1008.6
20260902022717 87 342 10.0 14.0 0.00 0.00 0.00 53 1008.8
20260902021717 88 344 11.0 14.0 0.00 0.00 0.00 52 1008.6
20260902020717 91 330 6.0 8.0 0.00 0.00 0.00 51 1008.2
20260902020517 91 335 3.0 3.0 0.00 0.00 0.00 51 1008.0
20260902015716 91 19 5.0 5.0 0.00 0.00 0.00 51 1007.9
20260902014717 91 331 2.0 6.0 0.00 0.00 0.00 52 1007.7
20260902013717 91 338 5.0 9.0 0.00 0.00 0.00 50 1007.8
20260902012716 91 333 7.0 9.0 0.00 0.00 0.00 48 1007.8
20260902011717 91 346 10.0 15.0 0.00 0.00 0.00 47 1007.7
20260902010717 92 336 11.0 13.0 0.00 0.00 0.00 44 1007.8
20260902005717 102 0.0 0.0 0.00 0.00 0.00 31 1007.1
20260902004717 103 182 8.0 10.0 0.00 0.00 0.00 31 1006.7
20260902003717 105 201 6.0 9.0 0.00 0.00 0.00 30 1006.3
20260902002617 105 165 9.0 11.0 0.00 0.00 0.00 30 1005.7